• Join FlightAware (Why Join?)
  • Login
  • US Flag 
11:32AM EDT


 

Airport Tracker/Info


-or-


 

Live Flight TrackerFlight Track Log ✈ SWA286 ✈ 18-Apr-2013 ✈ KBNA - KDEN

Flight Track Log - Related Links

Times and Time Zones

All times are in EDT time to prevent confusion due to time zone crossing. See the SWA286 flight status page for this flight to view local times or setup timezone preferences in your user account.

Time Position Orientation Groundspeed Altitude Reporting Facility
EDT Latitude Longitude Course Direction KTS MPH feet Rate Location/Type
04:48PM 36.1000 -86.6833 219° Southwest 161 185 1,400  Level Nashville TRACON
04:48PM 36.0833 -86.7000 219° Southwest 179 206 2,000 1,800 Climbing Nashville TRACON
04:49PM 36.1167 -86.7833 296° West 265 305 3,800 2,820 Climbing Nashville TRACON
04:50PM 36.1500 -86.8667 296° West 282 325 7,700 3,000 Climbing Nashville TRACON
04:51PM 36.1333 -86.9775 259° West 258 297 10,500 1,740 Climbing Memphis Center
04:52PM 36.1192 -87.0758 260° West 292 336 11,400 1,740 Climbing Memphis Center
04:53PM 36.1017 -87.1972 260° West 347 399 14,000 2,820 Climbing Memphis Center
04:54PM 36.0797 -87.3189 257° West 365 420 17,100 2,940 Climbing Memphis Center
04:55PM 36.0533 -87.4431 255° West 377 434 19,900 2,580 Climbing Memphis Center
04:56PM 36.0272 -87.5697 256° West 382 440 22,300 1,980 Climbing Memphis Center
04:57PM 36.0031 -87.7039 257° West 390 449 23,900 1,620 Climbing Memphis Center
04:58PM 35.9728 -87.8511 256° West 396 456 25,600 1,500 Climbing Memphis Center
04:59PM 35.9442 -87.9906 256° West 410 472 27,000 1,500 Climbing Memphis Center
05:00PM 35.9156 -88.1322 256° West 421 484 28,600 1,680 Climbing Memphis Center
05:01PM 35.8844 -88.2639 254° West 413 475 30,400 1,740 Climbing Memphis Center
05:02PM 35.8281 -88.3831 240° Southwest 413 475 32,100 1,680 Climbing Memphis Center
05:03PM 35.7672 -88.5022 238° Southwest 408 470 33,800 1,560 Climbing Memphis Center
05:04PM 35.7106 -88.6133 238° Southwest 408 470 35,300 1,260 Climbing Memphis Center
05:05PM 35.6536 -88.7294 239° Southwest 402 463 36,400 1,200 Climbing Memphis Center
05:06PM 35.5986 -88.8378 238° Southwest 390 449 37,800 780 Climbing Memphis Center
05:07PM 35.5497 -88.9356 238° Southwest 385 443 38,000 60 Climbing Memphis Center
05:08PM 35.4969 -89.0464 240° Southwest 380 437 38,000  Level Memphis Center
05:09PM 35.4436 -89.1517 238° Southwest 374 430 38,000  Level Memphis Center
05:10PM 35.3906 -89.2567 238° Southwest 374 430 38,000  Level Memphis Center
05:11PM 35.3369 -89.3594 237° Southwest 369 425 38,000  Level Memphis Center
05:12PM 35.2836 -89.4642 238° Southwest 363 418 38,000  Level Memphis Center
05:13PM 35.2300 -89.5689 238° Southwest 368 423 38,000  Level Memphis Center
05:14PM 35.1744 -89.6789 238° Southwest 374 430 38,000  Level Memphis Center
05:15PM 35.1167 -89.7961 239° Southwest 374 430 38,000  Level Memphis Center
05:16PM 35.0608 -89.9056 238° Southwest 374 430 38,000  Level Memphis Center
05:17PM 35.0131 -90.0172 242° Southwest 379 436 38,000  Level Memphis Center
05:18PM 34.9947 -90.1417 260° West 373 429 38,000  Level Memphis Center
05:19PM 34.9761 -90.2633 259° West 373 429 38,000  Level Memphis Center
05:20PM 34.9594 -90.3850 261° West 373 429 38,000  Level Memphis Center
05:21PM 34.9406 -90.5039 259° West 373 429 38,000  Level Memphis Center
05:22PM 34.9236 -90.6231 260° West 368 423 38,000  Level Memphis Center
05:23PM 34.9044 -90.7419 259° West 368 423 38,000  Level Memphis Center
05:24PM 34.8875 -90.8583 260° West 363 418 38,000  Level Memphis Center
05:25PM 34.8703 -90.9772 260° West 358 412 38,000  Level Memphis Center
05:26PM 34.8508 -91.1011 259° West 363 418 38,000  Level Memphis Center
05:27PM 34.8333 -91.2250 260° West 369 425 38,000  Level Memphis Center
05:28PM 34.8117 -91.3461 258° West 369 425 38,000  Level Memphis Center
05:29PM 34.7961 -91.4572 260° West 369 425 38,000  Level Memphis Center
05:30PM 34.7761 -91.5758 258° West 370 426 38,000  Level Memphis Center
05:31PM 34.7561 -91.7019 259° West 370 426 38,000  Level Memphis Center
05:32PM 34.7381 -91.8306 260° West 364 419 38,000  Level Memphis Center
05:33PM 34.7844 -91.9503 295° West 363 418 38,000  Level Memphis Center
05:34PM 34.8308 -92.0672 296° West 369 425 38,000  Level Memphis Center
05:35PM 34.8772 -92.1847 296° West 380 437 38,000  Level Memphis Center
05:36PM 34.9233 -92.2997 296° West 380 437 38,000  Level Memphis Center
05:37PM 34.9675 -92.4172 295° West 380 437 38,000  Level Memphis Center
05:38PM 35.0114 -92.5325 295° West 380 437 38,000  Level Memphis Center
05:39PM 35.0553 -92.6528 294° West 380 437 38,000  Level Memphis Center
05:40PM 35.0989 -92.7681 295° West 380 437 38,000  Level Memphis Center
05:41PM 35.1486 -92.8889 297° West 380 437 38,000  Level Memphis Center
05:42PM 35.1919 -93.0072 294° West 386 444 38,000  Level Memphis Center
05:43PM 35.2353 -93.1256 294° West 381 438 38,000  Level Memphis Center
05:44PM 35.2767 -93.2389 294° West 381 438 38,000  Level Memphis Center
05:45PM 35.3239 -93.3575 296° West 381 438 38,000  Level Memphis Center
05:46PM 35.3647 -93.4733 293° West 376 433 38,000  Level Memphis Center
05:47PM 35.4078 -93.5897 294° West 376 433 38,000  Level Memphis Center
05:48PM 35.4525 -93.7086 295° West 381 438 38,000  Level Memphis Center
05:49PM 35.4953 -93.8250 294° West 381 438 38,000  Level Memphis Center
05:50PM 35.5378 -93.9442 294° West 381 438 38,000  Level Memphis Center
05:51PM 35.5822 -94.0611 295° West 381 438 38,000  Level Memphis Center
05:52PM 35.6244 -94.1856 293° West 381 438 38,000  Level Memphis Center
05:53PM 35.6708 -94.3053 296° West 386 444 38,000  Level Memphis Center
05:54PM 35.7147 -94.4275 294° West 386 444 38,000  Level Memphis Center
05:55PM 35.7608 -94.5500 295° West 386 444 38,000  Level Memphis Center
05:57PM 35.8531 -94.8142 293° West 392 451 38,000  Level Kansas City Center
05:59PM 35.8975 -94.9392 294° West 394 453 38,000  Level Kansas City Center
06:00PM 35.9414 -95.0639 294° West 395 455 38,000  Level Kansas City Center
06:01PM 35.9967 -95.2122 295° West 393 452 38,000  Level Kansas City Center
06:02PM 36.0400 -95.3394 293° West 397 457 38,000  Level Kansas City Center
06:03PM 36.0797 -95.4525 294° West 398 458 38,000  Level Kansas City Center
06:04PM 36.1239 -95.5767 294° West 397 457 38,000  Level Kansas City Center
06:05PM 36.1750 -95.7269 293° West 397 457 38,000  Level Kansas City Center
06:06PM 36.2183 -95.8450 294° West 395 455 38,000  Level Kansas City Center
06:07PM 36.2700 -95.9667 298° West 396 456 38,000  Level Kansas City Center
06:08PM 36.3200 -96.0900 297° West 397 457 38,000  Level Kansas City Center
06:09PM 36.3689 -96.2108 297° West 393 452 38,000  Level Kansas City Center
06:10PM 36.4272 -96.3561 297° West 391 450 38,000  Level Kansas City Center
06:11PM 36.4753 -96.4764 296° West 390 449 38,000  Level Kansas City Center
06:12PM 36.5250 -96.5978 297° West 391 450 38,000  Level Kansas City Center
06:13PM 36.5736 -96.7206 296° West 393 452 38,000  Level Kansas City Center
06:14PM 36.6236 -96.8447 297° West 398 458 38,000  Level Kansas City Center
06:15PM 36.6706 -96.9669 296° West 393 452 38,000  Level Kansas City Center
06:16PM 36.7269 -97.1072 297° West 392 451 38,000  Level Kansas City Center
06:17PM 36.7722 -97.2319 294° West 395 455 38,000  Level Kansas City Center
06:18PM 36.8139 -97.3553 293° West 391 450 38,000  Level Kansas City Center
06:19PM 36.8617 -97.4886 294° West 390 449 38,000  Level Kansas City Center
06:20PM 36.9050 -97.6178 293° West 396 456 38,000  Level Kansas City Center
06:21PM 36.9497 -97.7453 294° West 399 459 38,000  Level Kansas City Center
06:22PM 36.9936 -97.8758 293° West 404 465 38,000  Level Kansas City Center
06:23PM 37.0381 -98.0056 293° West 403 464 38,000  Level Kansas City Center
06:24PM 37.0811 -98.1353 293° West 403 464 38,000  Level Kansas City Center
06:25PM 37.1256 -98.2656 293° West 404 465 38,000  Level Kansas City Center
06:26PM 37.1775 -98.4222 293° West 404 465 38,000  Level Kansas City Center
06:27PM 37.2203 -98.5497 293° West 400 460 38,000  Level Kansas City Center
06:29PM 37.2636 -98.6783 293° West 399 459 38,000  Level Kansas City Center
06:30PM 37.3058 -98.8081 292° West 400 460 38,000  Level Kansas City Center
06:31PM 37.3483 -98.9383 292° West 402 463 38,000  Level Kansas City Center
06:32PM 37.3919 -99.0708 293° West 406 467 38,000  Level Kansas City Center
06:33PM 37.4356 -99.2031 293° West 409 471 38,000  Level Kansas City Center
06:34PM 37.4883 -99.3622 293° West 411 473 38,000  Level Kansas City Center
06:35PM 37.5269 -99.4875 291° West 412 474 38,000  Level Kansas City Center
06:36PM 37.5758 -99.6389 292° West 417 480 38,000  Level Kansas City Center
06:37PM 37.6186 -99.7689 293° West 419 482 38,000  Level Kansas City Center
06:38PM 37.6667 -99.9203 292° West 418 481 38,000  Level Kansas City Center
06:39PM 37.7075 -100.0500 292° West 417 480 38,000  Level Kansas City Center
06:40PM 37.7544 -100.2000 292° West 414 476 38,000  Level Kansas City Center
06:41PM 37.7936 -100.3269 291° West 409 471 38,000  Level Kansas City Center
06:42PM 37.8411 -100.4767 292° West 411 473 38,000  Level Kansas City Center
06:43PM 37.8803 -100.6036 291° West 409 471 38,000  Level Kansas City Center
06:44PM 37.9269 -100.7514 292° West 409 471 38,000 -300 Level Kansas City Center
06:45PM 37.9767 -100.8767 297° West 416 479 37,500 -720 Descending Kansas City Center
06:46PM 38.0100 -100.9606 297° West 418 481 36,900 -960 Descending Denver Center
06:47PM 38.0581 -101.0867 296° West 418 481 36,000 -480 Descending Denver Center
06:48PM 38.1128 -101.2314 296° West 410 472 36,000  Level Denver Center
06:49PM 38.1611 -101.3583 296° West 416 479 36,000  Level Denver Center
06:50PM 38.2225 -101.5053 298° West 421 484 36,000  Level Denver Center
06:51PM 38.2850 -101.6269 303° West 427 491 36,000  Level Denver Center
06:52PM 38.3561 -101.7697 302° West 428 493 36,000  Level Denver Center
06:53PM 38.4158 -101.8914 302° West 425 489 36,000 -120 Level Denver Center
06:54PM 38.4767 -102.0117 303° West 423 487 35,800 -660 Descending Denver Center
06:55PM 38.5475 -102.1567 302° West 429 494 34,700 -1,080 Descending Denver Center
06:56PM 38.6086 -102.2822 302° West 435 501 33,700 -1,020 Descending Denver Center
06:57PM 38.6781 -102.4261 302° West 427 491 32,700 -840 Descending Denver Center
06:58PM 38.7367 -102.5467 302° West 419 482 32,000 -360 Descending Denver Center
06:59PM 38.8022 -102.6839 302° West 405 466 32,000  Level Denver Center
07:00PM 38.8606 -102.8022 302° West 399 459 32,000  Level Denver Center
07:01PM 38.9178 -102.9236 301° West 397 457 32,000  Level Denver Center
07:02PM 38.9764 -103.0444 302° West 396 456 32,000 -720 Level Denver Center
07:03PM 39.0328 -103.1650 301° West 392 451 30,600 -1,680 Descending Denver Center
07:04PM 39.0881 -103.2800 302° West 380 437 28,600 -2,040 Descending Denver Center
07:05PM 39.1419 -103.3911 302° West 366 421 26,500 -2,100 Descending Denver Center
07:06PM 39.2003 -103.5181 301° West 350 403 24,300 -2,040 Descending Denver Center
07:07PM 39.2489 -103.6206 302° West 336 387 22,400 -1,800 Descending Denver Center
07:08PM 39.2956 -103.7197 301° West 321 369 20,600 -1,740 Descending Denver Center
07:09PM 39.3381 -103.8189 299° West 315 362 18,900 -1,380 Descending Denver Center
07:10PM 39.3419 -103.9325 273° West 315 362 17,800 -1,020 Descending Denver Center
07:11PM 39.3472 -104.0458 273° West 314 361 16,800 -1,620 Descending Denver Center
07:12PM 39.3514 -104.1669 273° West 311 358 14,600 -1,860 Descending Denver Center
07:13PM 39.3581 -104.2764 275° West 309 356 13,000 -780 Descending Denver Center
07:14PM 39.3639 -104.3767 274° West 260 299 13,000 -540 Level Denver Center
07:15PM 39.3806 -104.4506 286° West 219 252 12,000 -1,140 Descending Denver Center
07:16PM 39.4025 -104.5214 292° West 219 252 10,700 -1,020 Descending Denver Center
07:17PM 39.4525 -104.5728 322° Northwest 220 253 10,000 -780 Descending Denver Center
07:19PM 39.5078 -104.6047 336° Northwest 218 251 9,200 -540 Descending Denver Center
07:20PM 39.5678 -104.6417 335° Northwest 222 255 9,000 -120 Descending Denver Center
07:21PM 39.6258 -104.6631 344° North 219 252 9,000 -420 Level Denver Center
07:22PM 39.6872 -104.6619 North 221 254 8,200 -1,080 Descending Denver Center
07:23PM 39.7522 -104.6614 360° North 216 249 6,900 -1,080 Descending Denver Center
07:24PM 39.7964 -104.6611 360° North 161 185 6,100 -780 Descending Denver Center
07:25PM 39.8378 -104.6606 North 145 167 5,300 -780 Descending Denver Center
07:27PM 39.8500 -104.6667 North  Level FlightAware Approximate
07:34PM 39.8617 -104.6732 North  Level Estimated
07:35PM 39.8617 -104.6732 North  Level Estimated